Weather Roundup
Issued by NWS Springfield, MO

Home | Current Version | Previous Version | Text Only | Print | Product List | Glossary On
Versions: 1 2 3 4 5 6 7 8 9 10 11 12 13 14 15 16 17 18 19 20 21 22 23 24 25 26 27 28 29 30 31 32 33 34 35 36 37 38 39 40 41 42 43 44 45 46 47 48 49 50
771
NZUS99 KSGF 292307
HRRSGF

HOURLY WEATHER
NATIONAL WEATHER SERVICE SPRINGFIELD MO
600 PM CDT SAT APR 29 2017

......SGF CWA......

CITY           SKY/WX    TMP DP  RH WIND       PRES   REMARKS
SPRINGFIELD    TSTM      59  58  96 E18       29.72F FOG
JOPLIN         TSTM      58  57  97 NE6       29.67R
WEST PLAINS    TSTM      63  62  97 NE7       29.84S VSB 1/2
ROLLA          HVY RAIN  53  53 100 NE7       29.83R FOG
OSAGE BEACH    RAIN      52  52 100 NE9       29.82R
BRANSON        TSTM      63  63 100 E12       29.75R FOG

......SURROUNDING SGF CWA......

CITY           SKY/WX    TMP DP  RH WIND       PRES   REMARKS
CHANUTE        LGT RAIN  55  53  93 CALM      29.72R
PARSONS        TSTM      55  54  96 VRB7G20   29.67R FOG
COFFEYVILLE    LGT RAIN  57  56  96 N13       29.65R
EMPORIA        LGT RAIN  47  47 100 N12       29.76R
GROVE OK       LGT RAIN  63  61  94 E9        29.63F
ROGERS AR      TSTM      65  64  97 E10G25    29.64F
SILOAM SPRINGS CLOUDY    64  61  88 E6        29.62F THUNDER
HARRISON AR    TSTM      64  63  96 SE13      29.71S
NEAR YELLVILLE   N/A    N/A N/A N/A W13       29.70F THUNDER

......KANSAS AND MISSOURI......

CITY           SKY/WX    TMP DP  RH WIND       PRES   REMARKS
KANSAS CTY INT LGT RAIN  46  45  96 N10       29.86R
DOWNTOWN KC    LGT RAIN  48  46  93 NE12      29.85R
COLUMBIA       RAIN      48  47  96 NE18G24   29.80F
SEDALIA        LGT RAIN  49  49 100 E8        29.82F
ST JOSEPH      CLOUDY    46  44  93 NE15G24   29.90R
ST LOUIS       RAIN      60  57  89 NW15      29.85R FOG
SPIRIT OF STL  TSTM      56  55  97 NW10      29.86R FOG
KIRKSVILLE     CLOUDY    42  30  62 E23G35    29.82F
WICHITA        CLOUDY    48  46  93 N21G26    29.72F
TOPEKA         LGT RAIN  47  47 100 N14G22    29.80F FOG
OLATHE         RAIN      49  49 100 N7        29.81R FOG

......TENNESSEE......

CITY           SKY/WX    TMP DP  RH WIND       PRES   REMARKS
MEMPHIS        MOSUNNY   86  69  56 S17G28    29.79F HX  90
NASHVILLE      MOSUNNY   87  63  44 S16G23    29.94F

......ARKANSAS.......

CITY           SKY/WX    TMP DP  RH WIND       PRES   REMARKS
FAYETTEVILLE   TSTM      65  65 100 CALM      29.67R FOG
FT SMITH       CLOUDY    75  69  81 SE8G18    29.56F
LITTLE ROCK    CLOUDY    81  72  74 S9        29.68R

......OKLAHOMA.......

CITY           SKY/WX    TMP DP  RH WIND       PRES   REMARKS
TULSA          LGT RAIN  56  56 100 NE10      29.57F
PONCA CITY     LGT RAIN  52  49  89 N15       29.62F
MCALESTER      TSTM      61  60  97 NW9       29.52R FOG
OKLAHOMA CITY  DRZL/FOG  50  50 100 MISG      29.62R VSB 3/4

......IOWA............

CITY           SKY/WX    TMP DP  RH WIND       PRES   REMARKS
DES MOINES     CLOUDY    44  37  76 NE13G23   30.01R
QUAD CITIES    LGT RAIN  41  37  86 NE21G30   29.99F

......ILLINOIS........

CITY           SKY/WX    TMP DP  RH WIND       PRES   REMARKS
QUINCY         LGT RAIN  43  42  97 NE17      29.90R
CHICAGO        RAIN      40  37  89 NE18      30.12F FOG     WCI  31




USA.gov is the U.S. government's official web portal to all federal, state and local government web resources and services.